TimePST,TemperatureF,Dew PointF,Humidity,Sea Level PressureIn,VisibilityMPH,Wind Direction,Wind SpeedMPH,Gust SpeedMPH,PrecipitationIn,Events,Conditions,WindDirDegrees,DateUTC
4:00 AM,10,7,81,29.47,,SSE,12.7,,,,,150,2013-01-07 12:00:00
7:00 AM,37.4,35.6,93,29.77,15.0,ESE,8.1,23.0,N/A,Rain,Light Rain,110,2013-01-07 15:00:00
8:00 AM,39.2,37.4,93,29.76,20.0,ESE,6.9,-,N/A,Rain,Light Rain,110,2013-01-07 16:00:00
9:00 AM,39.2,37.4,93,29.78,20.0,Calm,Calm,-,N/A,Rain,Light Rain,0,2013-01-07 17:00:00
9:20 AM,-9999,-9999,N/A,-9999,8.0,Calm,Calm,-,N/A,Rain,Light Rain,0,2013-01-07 17:20:00
9:41 AM,-9999,-9999,N/A,-9999,1.5,Calm,Calm,-,N/A,Rain,Light Rain,0,2013-01-07 17:41:00
10:00 AM,17,14,84,29.27,,WSW,5.8,,,,,250,2013-01-07 18:00:00
10:00 AM,37.4,37.4,100,29.81,1.5,Calm,Calm,-,N/A,Rain,Light Rain,0,2013-01-07 18:00:00
11:00 AM,39.2,37.4,93,29.83,1.5,Calm,Calm,-,N/A,Rain,Light Rain,0,2013-01-07 19:00:00
12:00 PM,39.2,37.4,93,29.87,1.5,Calm,Calm,-,N/A,Rain,Light Rain,0,2013-01-07 20:00:00
12:32 PM,-9999,-9999,N/A,-9999,1.5,Calm,Calm,-,N/A,,Light Drizzle,0,2013-01-07 20:32:00
1:00 PM,39.2,37.4,93,29.88,2.0,Calm,Calm,-,N/A,,Light Drizzle,0,2013-01-07 21:00:00
1:15 PM,-9999,-9999,N/A,-9999,6.0,Calm,Calm,-,N/A,,Light Drizzle,0,2013-01-07 21:15:00
1:37 PM,-9999,-9999,N/A,-9999,4.0,Calm,Calm,-,N/A,Rain,Light Rain,0,2013-01-07 21:37:00
2:00 PM,39.2,39.2,100,29.91,5.0,NW,2.3,-,N/A,Rain,Light Rain,310,2013-01-07 22:00:00
2:29 PM,-9999,-9999,N/A,-9999,8.0,Calm,Calm,-,N/A,Rain,Light Rain,0,2013-01-07 22:29:00
3:00 PM,41.0,39.2,93,29.94,20.0,Calm,Calm,-,N/A,Rain,Light Rain,0,2013-01-07 23:00:00
3:33 PM,-9999,-9999,N/A,-9999,25.0,Calm,Calm,-,N/A,,Overcast,0,2013-01-07 23:33:00
3:54 PM,-9999,-9999,N/A,-9999,20.0,Calm,Calm,-,N/A,,Overcast,0,2013-01-07 23:54:00
4:00 PM,6,2,74,29.49,,WNW,15.0,,,,,300,2013-01-08 00:00:00
4:00 PM,39.2,39.2,100,29.98,20.0,Calm,Calm,-,N/A,,Overcast,0,2013-01-08 00:00:00
4:20 PM,-9999,-9999,N/A,-9999,20.0,Calm,Calm,-,N/A,,Light Drizzle,0,2013-01-08 00:20:00
5:00 PM,39.2,39.2,100,30.01,20.0,WNW,2.3,-,N/A,,Light Drizzle,290,2013-01-08 01:00:00
5:41 PM,-9999,-9999,N/A,-9999,20.0,WNW,4.6,-,N/A,,Overcast,290,2013-01-08 01:41:00
6:00 PM,39.2,37.4,93,30.04,20.0,WNW,3.5,-,N/A,,Overcast,290,2013-01-08 02:00:00
6:34 PM,-9999,-9999,N/A,-9999,20.0,West,4.6,-,N/A,,Mostly Cloudy,260,2013-01-08 02:34:00
7:00 PM,39.2,37.4,93,30.05,20.0,WSW,3.5,-,N/A,,Scattered Clouds,250,2013-01-08 03:00:00
10:00 PM,4,1,82,29.69,,West,9.2,,,,,270,2013-01-08 06:00:00